Regional Weather Roundup
Issued by NWS Sioux Falls, SD

Home | Current Version | Previous Version | Graphics & Text | Print | Product List | Glossary Off
Versions: 1 2 3 4 5 6 7 8 9 10 11 12 13 14 15 16 17 18 19 20 21 22 23 24 25 26 27 28 29 30 31 32 33 34 35 36 37 38 39 40 41 42 43 44 45 46 47 48 49 50

000
ASUS43 KFSD 300910
RWRFSD

WEATHER ROUNDUP FOR SE SOUTH DAKOTA/SW MINNESOTA/NW IOWA
NATIONAL WEATHER SERVICE SIOUX FALLS SD
400 AM CDT SUN APR 30 2017

NOTE: "FAIR" INDICATES FEW OR NO CLOUDS BELOW 12,000 FEET WITH NO
SIGNIFICANT WEATHER AND OR OBSTRUCTIONS TO VISIBILITY.


SDZ038>040-050-052>070-301000-
SOUTHEAST SOUTH DAKOTA

CITY           SKY/WX    TMP DP  RH WIND       PRES   REMARKS
BROOKINGS      CLOUDY    42  24  49 NE8       30.06F
CHAMBERLAIN    CLOUDY    42  31  63 NW7       30.07S
HURON          CLOUDY    41  28  60 N7        30.08F
MADISON        PTSUNNY   41  23  48 NE12      30.04S
MITCHELL       CLOUDY    42  29  59 N8        30.06S
SIOUX FALLS    CLOUDY    44  29  55 NE12      30.02F
WINNER         FAIR      37  27  67 N8        30.06F
YANKTON        CLOUDY    45  27  49 NE10      30.01R
$$

MNZ071-072-080-081-089-090-097-098-301000-
SOUTHWEST MINNESOTA

CITY           SKY/WX    TMP DP  RH WIND       PRES   REMARKS
FAIRMONT       CLOUDY    45  32  60 NE9G20    30.04S
JACKSON        DRIZZLE   43  32  65 NE13      30.03F
LUVERNE        MOCLDY    43  27  52 NE10      30.02F
MARSHALL       CLOUDY    43  28  55 E12       30.07F
MONTEVIDEO     CLOUDY    43  27  52 E8        30.10F
PIPESTONE      CLOUDY    43  23  45 E13       30.03F
REDWOOD FALLS  CLOUDY    45  25  45 NE10      30.08F
TRACY          CLOUDY    44  30  57 E12       30.07S
WINDOM         CLOUDY    45  27  49 NE13      30.04F
WORTHINGTON    CLOUDY    42  27  55 NE17      30.01F
$$

IAZ001>003-012>014-020>022-031-032-NEZ013-014-SDZ071-301000-
NORTHWEST IOWA

CITY           SKY/WX    TMP DP  RH WIND       PRES   REMARKS
CHEROKEE       RAIN      40  37  87 NE13      29.98F
DENISON        CLOUDY    37  37 100 NE21G28   29.95S FOG
ESTHERVILLE    LGT RAIN  41  33  73 NE21G29   30.01F
ORANGE CITY    CLOUDY    45  34  65 E15G22    29.98F
SHELDON        CLOUDY    45  30  57 E24G30    29.98F
SIOUX CITY     LGT RAIN  42  36  79 NE14      29.98S
SPENCER        LGT RAIN  42  34  73 NE18      30.00F
STORM LAKE     LGT RAIN  39  36  87 NE21G29   29.95F
$$

ABBREVIATIONS USED IN REMARKS
   TC - TEMPERATURE IN CELSIUS
  WCI - WIND CHILL INDEX
   HX - HEAT INDEX
  VSB - VISIBILITY




USA.gov is the U.S. government's official web portal to all federal, state and local government web resources and services.